Regional Weather Roundup
Issued by NWS Charleston, SC

Current Version | Previous Version | Graphics & Text | Print | Product List | Glossary On
Versions: 1 2 3 4 5 6 7 8 9 10 11 12 13 14 15 16 17 18 19 20 21 22 23 24 25 26 27 28 29 30 31 32 33 34 35 36 37 38 39 40 41 42 43 44 45 46 47 48 49 50
000
ASUS42 KCHS 011326
RWRCHS

REGIONAL WEATHER ROUNDUP
NATIONAL WEATHER SERVICE CHARLESTON SC
800 AM EST SUN FEB 01 2015

NOTE: "FAIR" INDICATES FEW OR NO CLOUDS BELOW 12,000 FEET WITH NO
SIGNIFICANT WEATHER AND/OR OBSTRUCTIONS TO VISIBILITY.

NOT ALL STATIONS ARE QUALITY CONTROLLED BY THE NATIONAL
WEATHER SERVICE. USE DATA WITH CAUTION...ESPECIALLY
DEWPOINT OBSERVATIONS.

SCZ027-030-031-034>040-042>050-011400-
...SOUTHEAST SOUTH CAROLINA...

CITY           SKY/WX    TMP DP  RH WIND       PRES   REMARKS
N CHARLESTON   MOCLDY    41  36  82 CALM      30.31F
WATERFRONT PRK   N/A     48 N/A N/A NE3         N/A
MOUNT PLEASANT FAIR      37  36  93 CALM      30.31F
PINOPOLIS        N/A     43  36  75 VRB2      30.24R
MONCKS CORNER  FAIR      37  34  87 CALM      30.31F FOG
SUMMERVILLE    FAIR      36  36 100 CALM      30.31F
BEAUFORT MCAS  PTCLDY    43  40  89 CALM      30.30S
BEAUFORT ARPT  FAIR      45  45 100 CALM      30.29S
HILTON HEAD IS PTCLDY    41  37  87 NE6       30.30S
WALTERBORO     PTSUNNY   39 N/A N/A CALM      30.31S
ALLENDALE      FAIR      37  34  87 CALM      30.28S

...SOUTHERN MIDLANDS AND PEE DEE...

CITY           SKY/WX    TMP DP  RH WIND       PRES   REMARKS
GEORGETOWN     NOT AVBL
KINGSTREE      NOT AVBL
ORANGEBURG     PTCLDY    36  29  75 CALM      30.30R
BARNWELL         N/A     37  34  87 CALM      30.29S
AIKEN          FAIR      37  34  87 CALM      30.30S
MANNING        FAIR      37  36  93 SE3       30.31S
COLUMBIA       MOCLDY    39  29  67 CALM      30.30R
SUMTER         CLOUDY    37  29  72 S3        30.29R
FLORENCE       CLOUDY    38  31  76 CALM      30.30F
MYRTLE BEACH   PTCLDY    39  34  81 SW6       30.35R WCI  35
N MYRTLE BEACH CLOUDY    39  36  89 CALM      30.33R

$$

GAZ063-065-086>088-099>101-113>116-118-119-134>141-150-011400-
...SOUTHEAST GEORGIA...

CITY           SKY/WX    TMP DP  RH WIND       PRES   REMARKS
SAVANNAH ARPT  MOCLDY    38  35  89 CALM      30.29S
HUNTER AAF     CLEAR     40  39  95 CALM      30.26S
FORT STEWART   CLEAR     37  34  92 CALM      30.27R
STATESBORO     CLEAR     36  36 100 CALM      30.27F
SYLVANIA       SUNNY     38  37  94 CALM      30.28F
CLAXTON        FAIR      34  34 100 CALM      30.27F

...CSRA...CENTRAL AND FAR SOUTHEAST GEORGIA...

CITY           SKY/WX    TMP DP  RH WIND       PRES   REMARKS
THOMSON        MOCLDY    39  35  85 CALM      30.30S
AUGUSTA-BUSH   MOCLDY    36  31  82 CALM      30.29R
AUGUSTA-DANIEL MOCLDY    42  28  57 SE3       30.28R
SWAINSBORO     FAIR      43  32  65 SE6       30.26F
VIDALIA        CLEAR     43  39  87 E3        30.26S
EASTMAN        FAIR      35  35 100 CALM      30.28R
HAZLEHURST     FAIR      46  41  85 SE5       30.24S
ALMA           CLEAR     43  39  86 E5        30.25S
WAYCROSS       PTCLDY    46  45  94 E3        30.25S
JESUP          FAIR      41  41 100 CALM      30.27S
BAXLEY         FAIR      46  41  81 SE3       30.25S
BRUNSWICK      CLEAR     46  45  93 CALM      30.28R
SAINT SIMONS   CLEAR     50  48  93 CALM      30.27S

$$

SCZ027-028-034-036>038-045-046-048>050-GAZ119-141-011400-
...LAKE AND SUPPLEMENTAL COASTAL OBSERVATIONS...

STATION/POSITION TIME  TEMP    WIND        PRES    WAVE   SWELL
                       AIR SEA DIR/SP/G            HT/PER HT/PER/DIR
                 (UTC) (F)     (DEG/KT/KT) (MB)    (FT/S) (FT/S/D)
UPR LAKE MARION  NOT AVBL
WINYAH BAY       1200   39        CALM     1025.0
LAKE MURRAY      1200   45     210/  2/  3 1024.7R
ACE BASIN NERRS  NOT AVBL
FORT PULASKI     1300   52 52   60/  4/  4 1026.0S
SAPELO ISLAND    1300   53      80/  5     1025.0S

$$

ANZ835-935-AMZ111-154-330-350-352-354-370-450-454-472-011400-
...C-MAN AND BUOY OBSERVATIONS...

STATION/POSITION TIME  TEMP    WIND        PRES    WAVE   SWELL
                       AIR SEA DIR/SP/G            HT/PER HT/PER/DIR
                 (UTC) (F)     (DEG/KT/KT) (MB)    (FT/S) (FT/S/D)
BUOY 41004       1250   59 70  160/  6/ 10 1026.4R   4/11   3/11
BUOY 41008       1250   56 54   80/  6/  8 1024.9F   2/10   2/ 70/10
FOLLY BEACH CMAN 1300   52      80/  6/  7 1026.8F
CAPERS NEARSHORE 1200   51      80/  4/  6   N/A
FRIPP NEARSHORE  1200   52      90/  4/  4 1025.2R


STATION/POSITION TIME  TEMP    WIND        PRES    WAVE   SWELL
                       AIR SEA DIR/SP/G            HT/PER HT/PER/DIR
                 (UTC) (F)     (DEG/KT/KT) (MB)    (FT/S) (FT/S/D)
5E ST. MARYS GA  1221      56                N/A     3/10   2/ 60/11
FRYING PAN BUOY  1250   53 63  200/  4/  8 1027.8R   2/11   2/ 70/11
BUOY 41025       1250   52 71  280/ 14/ 21 1026.3R   7/11   7/ 60/11
CAPE LOOKOUT NC  1300   47     270/  6/  7 1026.7R
BUOY 41002       1250   58 69  350/  2/  6 1028.0R   9/11   8/ 10/11
BUOY 41010       1220   65 74   90/ 12/ 14 1025.4S
ST AUGUSTINE FL  1300   54     350/  4/  4 1025.3R


$$



USA.gov is the U.S. government's official web portal to all federal, state and local government web resources and services.